Hourly Data Report for March 03, 2019

MAYO A
YUKON TERRITORY
Current Station Operator: NAVCAN

63°36'59.000" N
135°52'06.000" W
503.80 m
2100701
71965
YMA

Download Data

Hourly Data (March 2019)
Hourly Data Report for March 3, 2019
TIME
LST
Temp Definition
°C
Dew Point Definition
°C
Rel Hum Definition
%
Precip. Amount Definition
mm

Wind Dir Definition
10's deg

Wind Spd Definition
km/h
Visibility Definition
km
Stn Press Definition
kPa
Hmdx Definition


Wind Chill Definition


Weather Definition


00:00 -17.8 -23.5 62   36 11 32.2 97.59   -25 LegendNANA
01:00 -24.2 -27.0 78   4 7 32.2 97.63   -31 Clear
02:00 -19.6 -21.9 82   2 13 32.2 97.68   -28 LegendNANA
03:00 -25.8 -28.3 80   6 7 32.2 97.71   -32 LegendNANA
04:00 -26.4 -28.8 80   5 5 32.2 97.74   -32 Clear
05:00 -28.0 -30.9 77   36 2 32.2 97.77   -30 LegendNANA
06:00 -28.0 -31.1 76   36 1 32.2 97.79   -29 LegendNANA
07:00 -29.7 -32.8 75   6 5 32.2 97.83   -35 Clear
08:00 -29.9 -33.0 75   36 2 32.2 97.84   -32 LegendNANA
09:00 -28.9 -32.0 75   22 4 32.2 97.87   -33 LegendNANA
10:00 -25.5 -29.0 73   36 2 32.2 97.90   -28 Clear
11:00 -20.6 -24.7 70   11 7 32.2 97.89   -26 LegendNANA
12:00 -17.8 -23.5 62   8 4 32.2 97.87   -21 LegendNANA
13:00 -15.0 -22.8 52   9 5 32.2 97.85   -19 Clear
14:00 -13.2 -21.9 48   7 3 32.2 97.79   -15 LegendNANA
15:00 -11.8 -21.2 46   36 2 32.2 97.77   -13 LegendNANA
16:00 -10.9 -21.0 44   8 3 32.2 97.72   -13 Clear
17:00 -10.4 -21.2 42   8 3 32.2 97.68   -12 LegendNANA
18:00 -12.8 -19.9 56   36 2 32.2 97.67   -14 LegendNANA
19:00 -17.7 -21.9 70   28 4 32.2 97.67   -21 Clear
20:00 -19.4 -22.6 77   36 2 32.2 97.69   -21 LegendNANA
21:00 -20.5 -22.8 82   3 4 32.2 97.72   -24 LegendNANA
22:00 -22.8 -25.2 81   9 4 32.2 97.69   -27 Clear
23:00 -24.7 -27.4 79   36 2 32.2 97.71   -27 LegendNANA

Notes on Data Quality.

Legend

  • E = Estimated
  • M = Missing
  • NA = Not Available*
  • [empty] = Indicates an unobserved value
Date modified: